Simultaneous Nadir Overpasses (SNOs) Predictions

Prediction of SNOs between METOP-B and TERRA Satellite Orbit:

Table of predicted SNOs for the next 14.0 days since TLE Epoch: 3/5/2022
Index Date (METOP-B) Time (METOP-B) Lat,Lon (METOP-B) SZA (METOP-B ) Date (TERRA) Time (TERRA) Lat,Lon (TERRA) SZA (TERRA ) Distance(km) Time Diff (sec)
1 03/07/2022 21:16:09 -81.25, 84.13 91.69 03/07/2022 21:16:26 -81.25, 84.15 91.68 0.37 17
2 03/07/2022 22:06:48 81.26,-108.02 88.36 03/07/2022 22:05:52 81.26,-108.12 88.32 1.86 56
3 03/10/2022 16:50:29 -81.25, 150.62 92.76 03/10/2022 16:50:36 -81.25, 150.56 92.77 1.02 7
4 03/10/2022 17:41:09 81.26, -41.93 87.24 03/10/2022 17:40:02 81.25, -41.74 87.23 3.21 67
5 03/13/2022 11:34:10 81.24, 49.24 86.12 03/13/2022 11:35:20 81.25, 49.27 86.15 0.68 70
6 03/13/2022 12:24:51 -81.24,-143.32 93.89 03/13/2022 12:24:47 -81.24,-143.13 93.87 3.16 4
7 03/16/2022 07:08:32 81.23, 115.26 84.99 03/16/2022 07:09:31 81.23, 115.46 85.03 3.25 59
8 03/16/2022 07:59:11 -81.25, -76.52 94.93 03/16/2022 07:58:57 -81.25, -76.55 94.94 0.55 14
9 03/19/2022 02:42:52 81.24,-177.98 83.94 03/19/2022 02:43:41 81.23,-178.09 83.94 2.08 49



Historial Predications of SNOs between METOP-B and TERRA
